Погода в Ауэзове

Казахстан     49°42′58″N   81°35′19″E
темп.,
°C
ветер,
м/с
пор.,
м/с
влажн.,
%
обл.,
%
осадки,
мм/ч
давл.,
гПа
погр.,
м
1 марта, пн
пн100:00−9ююв142287100 0.4 1027549
03:00−9ююв132189100 0.9 1025591
06:00−8ююв132191100 2.4 1025579
09:00−8ю122091100 1.8 1024580
12:00−7ю121890100 2.8 1023546
15:00−5ю111787100 0.6 1021595
18:00−5ю91791100 1.7 1021539
21:00−5ю101793100 2.1 1021580
2 марта, вт
вт200:00−3ю91396100 6.9 1021593
03:00−3ю71296100 3.9 1021544
06:00−3ю61096100 6.3 1022455
09:00−3ю71195100 2.6 1021470
12:00−2ю71195100 3.9 1020499
15:000ююз61099100 1.8 1018600
18:00−1ю61197100 4.1 1017611
21:00−1ю81296100 3.2 1017551
3 марта, ср
ср300:00−1юз71297100 6.4 1017622
03:00−2юз61292100 1.9 1018532
06:00−5сз6896100 2.9 1020395
09:00−10ссз2496100 0.5 1023201
12:00−8юз3488100 0.7 1025528
15:00−9ююз238439 0.0 1025355
18:00−11юв229042 0.0 102621
21:00−10ю4783100 0.0 1028130
4 марта, чт
чт400:00−12ю598199 0.0 1029153
03:00−14ююв448186 0.0 102861
06:00−14ююв468377 0.0 1030100
09:00−12ю5127762 0.0 1029256
12:00−7ю7137742 0.0 1028465
15:00−5ю7137678 0.0 1027483
18:00−7ююв6138077 0.0 1027267
21:00−9ююв6167969 0.0 1026281
5 марта, пт
пт500:00−8ююв6187981 0.0 1025354
03:00−5ююв102072100 0.0 1021429
06:00−4ююв14266698 0.0 1017474
09:00−5ю132188100 1.1 1016722
12:00−4ю111694100 4.4 1019518
15:000зюз61085100 0.3 1024912
18:00−1зюз349099 0.4 102890
21:00−4ююз489397 0.1 1030136